Location: Narrabri
(30.3170°S, 149.7830°E)
Time: 22:42:30
(UTC+10:00)

Vanguard 2 - Visible Passes

Search period start: 24 June 2018 00:00
Search period end: 04 July 2018 00:00
Orbit: 553 x 2939 km, 32.9° (Epoch: 23 June)

Date Brightness Start Highest point End Pass type
(mag) Time Alt. Az. Time Alt. Az. Time Alt. Az.
24 Jun 10.3 17:40:35 10° W 17:55:59 85° S 18:14:10 10° E visible
24 Jun 10.4 19:52:10 10° WSW 20:09:27 67° NNW 20:16:50 42° NE visible
24 Jun 11.2 22:06:34 10° W 22:18:20 29° WNW 22:18:20 29° WNW visible
25 Jun 10.3 17:58:55 10° WSW 18:14:32 89° NNW 18:32:38 10° ENE visible
25 Jun 10.6 20:10:41 10° WSW 20:27:34 57° NNW 20:34:48 39° NNE visible
25 Jun 11.4 22:26:31 10° W 22:36:19 22° NW 22:36:19 22° NW visible
26 Jun 10.4 18:17:15 10° WSW 18:33:00 82° NNW 18:50:56 10° ENE visible
26 Jun 10.8 20:29:20 10° WSW 20:45:34 47° NW 20:53:01 33° N visible
26 Jun 11.7 22:47:50 10° WNW 22:54:33 15° NW 22:54:33 15° NW visible
27 Jun 10.5 18:35:34 10° WSW 18:51:22 73° NNW 19:09:02 10° NE visible
27 Jun 11.1 20:48:16 10° W 21:03:29 37° NW 21:11:32 26° N visible
28 Jun 10.6 18:53:57 10° WSW 19:09:37 63° NNW 19:26:53 10° NE visible
28 Jun 11.4 21:07:39 10° W 21:21:20 29° NW 21:30:26 18° N visible
29 Jun 10.8 19:12:26 10° WSW 19:27:47 53° NNW 19:44:29 10° NE visible
29 Jun 11.7 21:27:48 10° W 21:39:11 21° NW 21:49:50 10° N visible
30 Jun 10.4 17:19:53 10° WSW 17:33:29 78° NNW 17:51:33 10° ENE visible
30 Jun 11.1 19:31:06 10° W 19:45:52 43° NW 20:01:44 10° NNE visible
30 Jun 11.9 21:49:40 10° WNW 21:57:04 14° NW 22:04:14 10° NNW visible
01 Jul 10.6 17:38:09 10° WSW 17:51:48 68° NNW 18:09:37 10° NE visible
01 Jul 11.4 19:50:06 10° W 20:03:55 34° NW 20:18:35 10° NNE visible
02 Jul 10.8 17:56:30 10° WSW 18:10:03 57° NNW 18:27:25 10° NE visible
02 Jul 11.7 20:09:38 10° W 20:21:56 26° NW 20:34:52 10° N visible
03 Jul 11.0 18:15:00 10° W 18:28:16 47° NNW 18:44:52 10° NE visible
03 Jul 11.9 20:30:08 10° WNW 20:40:00 18° NW 20:50:13 10° N visible
